STARLINK-32959, 63569

Orbit data source: Space-Track

STARLINK-32959, 63569 is a payload satellite owned by SpaceX/Seattle (US) in LEO that was launched on Mon, 14 Apr 2025 UTC via an FALCON 9 launch vehicle from the Air Force Eastern Test Range (AFETR). Payload-class satellites include a variety of spacecraft equipped with specific instruments for various scientific and technological missions. These include communications satellites like Starlink; space stations such as the ISS; scientific satellites like the Hubble; Earth observation satellites from companies like Planet Labs, Umbra, and HawkEye 360; GPS; miniature CubeSats for education and research; and military/defense satellites.

Loading next visibility...
Identifier
63569, 2025-076A
Orbit
LEO
Country
Flag of USUS
Related business
Manufacturer
SpaceX/Seattle
Mission
Operational Commercial Communications
Bus & Motor
STARLINK V2M, Unknown motor
Mass
730 kg wet, ~700 kg dry
Launch date (UTC)
2025-04-14 (1 year ago)
Launch vehicle
FALCON 9
Launch site
Air Force Eastern Test Range (AFETR)
Object type
Payload
Rocket body
Debris
Shape & HBR
Box + 2 Pan, 17.7 m
Radar Cross Section
33.884 m², Large (>1 m²)

Expand to show TLE details & history
Last TLE update: 14 hours ago

TLE from 14 hours ago
0 STARLINK-32959
1 63569U 25076A   26144.78919367  .00017845  00000-0  65612-3 0  9994
2 63569  42.9988 255.9046 0001912 278.0604  82.0031 15.27594461 63425
Epoch: 2026-05-24T18:56Z
TLE epoch observation values (Epoch: 2026-05-24T18:56:26.333Z)
Latitude
0.00002°
Longitude
89.4086°
Altitude
482.599 km
Speed
7.626 km/s
True Right ascension
17h 03m 37s
True Declination
0° 00' 00"
Sunlit
Object was in full shadow at epoch
Visualization orbit readout
Latitude
Unknown
Longitude
Unknown
Altitude
Unknown
Speed
Unknown
Apparent Right ascension
Unknown
Apparent Declination
Unknown
Sunlit
N/A
Visualization observer readout
Local Sidereal Time
18:25:56
Azimuth
Unknown
Elevation
Unknown
Doppler factor
Unknown
Orbital elements
Apogee altitude
486.263 km
Perigee altitude
483.639 km
Semi-major axis
6,863.088 km
Eccentricity
0.00019
Inclination
42.9988°
RAAN
255.9046°
Arg. of periapsis
278.0604°
True anomaly
82.0248°
Mean anomaly
82.0031°
Eccentric anomaly
82.01395°
Mean motion
3.81737 °/min
Orbital period
94.31 mins
BSTAR
0.00065612
Loading maneuver chart data...
Computing Atmospheric mass density...
Loading historical data...
Loading historical data...
Loading historical data...
Loading historical data...
Loading historical data...
Loading historical data...
Loading historical data...

Documentation

Showing up to 5 results
|